Weather in Toktogulskoye vodokhranilishche

Kyrgyzstan     41°44′31″N   72°51′08″E
temp.,
°C
wind,
m/s
gust,
m/s
humid.,
%
clouds,
%
prec.,
mm/h
press.,
hPa
HPBL,
m
7 may, fri
fri700:00+14sw2279100 2.6 101719
03:00+14nw018274 0.4 101711
06:00+14w118096 0.6 101712
09:00+14nnw2279100 0.5 1018141
12:00+14nnw228183 1.4 1019287
15:00+16e116472 0.1 1017548
18:00+17ese116132 0.2 1015315
21:00+16sw1173100 1.3 101712
8 may, sat
sat800:00+15wsw227257 1.8 101714
03:00+14w22705 0.0 101712
06:00+13w2269100 0.0 101814
09:00+15ne11679 0.0 1018243
12:00+17ese216324 0.0 1016511
15:00+18ese21575 0.1 1014771
18:00+19sse215588 0.1 1013458
21:00+18sw3361100 0.4 101321
9 may, sun
sun900:00+15ssw2278100 3.6 101622
03:00+14sw1178100 0.2 101611
06:00+14w11739 0.2 101511
09:00+16ne116723 0.0 1015242
12:00+17ese216353 0.1 1014586
15:00+18se226222 0.1 1012618
18:00+21ssw3349100 0.1 1011759
21:00+18sw445812 0.1 101324
10 may, mon
mon1000:00+16wsw235877 0.1 101315
03:00+15w22615 0.0 101312
06:00+15w226437 0.0 101313
09:00+17ne116399 0.0 1013191
12:00+18ese2157100 0.0 1011512
15:00+19sse2253100 0.0 1009700
18:00+21sw334732 0.1 1007732
21:00+17sw446449 0.4 100934
11 may, tue
tue1100:00+15ssw337894 2.1 101131
03:00+14wnw1188100 2.9 101235
06:00+14wsw118598 4.4 101235
09:00+15ene1181100 1.0 1013162
12:00+16se1268100 2.1 1011749
15:00+18ssw235946 0.8 1009909
18:00+19sw3358100 1.6 1010261
21:00+17wsw2264100 0.8 101228